Orbcomm D4

operational
NORAD ID: 25982 Int'l Des: 1999-065 Owner: ORBC Country: US Constellation: orbcomm
LEOCIRCULAR

关于 Orbcomm D4

正在加载描述...

实时位置

正在加载3D地球...

即将过境

高度历史

Altitude vs Time

uPlot chart will show altitude changes over time

两行轨道根数

1 25982U 99065C 26063.10718391 .00001220 00000-0 45561-3 0 9991
2 25982 45.0162 310.5601 0005776 261.4164 98.6029 14.36953558371971
Epoch: Mar 4, 2026 • Age: 12 hours

当前状态

高度 775.9 km
速度 7.47 km/s
星下点 -35.20°S, 83.16°W
发射日期 Dec 4, 1999
运行时间 26.2 years
类型 other

技术详情

分类 Payload
质量 44.00 kg
干质量 44.00 kg
总质量 44.00 kg
长度 0.20 m
直径 1.00 m
跨度 4.30 m
形状 Cyl + 2 Pan + Ant
制造商 OSCG
平台类型 Microstar
阶段状态 In Orbit
所有者/国家 ORBC/US

大型星座

Loading constellations...